x

Tanner Bank - 121nm West Of San Diego, Ca (46047) Wave Buoy

9:50am - Sat 1st Oct 2016 All times are PDT. -7 hours from GMT.

  • Sig Wave height 9.5ft
  • Swell Direction
  • Peak Period 8s
  • Average Period 7s
  • Wind
    20mph, 25mph gusts
  • Sea Temp 66°f
  • Air Temp 64°f
  • Sea Pressure 1016.6mb
  • Tanner Bank - 121nm West Of San Diego, Ca
  • Tanner Bank - 121nm West Of San Diego, Ca

More Historic Weather Station data

Upgrade to MSW Pro to gain access to the past 30 days of data for over 8000 Wavebouys and Weather Stations around the globe.

Join Pro

Comparision Forecast

View Surf forecast
   
Sat 10/01 9:50am 9.5ft 8s 7s 20 25 mph 1016.6mb 66f 64f
8:50am 9ft 8s 6s 20 25 mph 1016.3mb 66f 64f
7:50am 8ft 8s 6s 20 25 mph 1016.2mb 66f 64f
6:50am 9ft 9s 7s 22 27 mph 1015.5mb 66f 64f
5:50am 8ft 8s 6s 20 25 mph 1015.6mb 66f 64f
4:50am 8.5ft 8s 6s 20 25 mph 1015.7mb 66f 63f
3:50am 7.5ft 8s 6s 20 22 mph 1015.9mb 66f 64f
2:50am 8ft 8s 6s 20 25 mph 1015.9mb 66f 64f
1:50am 8ft 8s 6s 20 25 mph 1016mb 66f 64f
12:50am 7ft 8s 6s 20 22 mph 1015.9mb 66f 64f
Fri 09/30 11:50pm 8ft 8s 7s 20 22 mph 1015.8mb 66f 64f
10:50pm 7.5ft 16s 6s 22 25 mph 1015.4mb 66f 64f
9:50pm 7ft 16s 6s 20 25 mph 1015.2mb 66f 65f
8:50pm 6.5ft 17s 6s 22 27 mph 1015.1mb 66f 65f
7:50pm 6ft 15s 6s 20 25 mph 1014.9mb 67f 64f
6:50pm 6ft 15s 6s 18 20 mph 1014.8mb 67f 64f
5:50pm 5.5ft 15s 6s 20 22 mph 1014.8mb 67f 64f
4:50pm 5.5ft 15s 6s 18 20 mph 1015.2mb 67f 64f
3:50pm 6ft 15s 7s 18 20 mph 1015.6mb 67f 64f
2:50pm 5.5ft 14s 6s 16 18 mph 1016mb 67f 64f
1:50pm 5ft 15s 6s 13 18 mph 1016.8mb 67f 64f
12:50pm 5ft 15s 6s 13 16 mph 1017.6mb 67f 64f
11:50am 5ft 15s 6s 13 16 mph 1017.8mb 67f 64f
10:50am 5ft 15s 6s 13 18 mph 1018.1mb 67f 64f
9:50am 4.5ft 15s 6s 16 18 mph 1017.7mb 67f 63f
8:50am 4.5ft 15s 6s 13 18 mph 1017.7mb 67f 63f
7:50am 4.5ft 15s 6s 13 18 mph 1017.5mb 67f 62f
6:50am 4.5ft 15s 7s 13 16 mph 1017.3mb 66f 62f
5:50am 4.5ft 15s 6s 11 13 mph 1017.3mb 66f 62f
4:50am 4.5ft 15s 7s 13 16 mph 1016.9mb 66f 63f
3:50am 4.5ft 9s 7s 13 16 mph 1016.5mb 66f 63f
2:50am 4.5ft 15s 7s 11 13 mph 1017mb 67f 63f
1:50am 5ft 16s 7s 9 11 mph 1017.2mb 67f 64f
12:50am 5.5ft 16s 7s 13 16 mph 1017.1mb 67f 64f
Thu 09/29 11:50pm 5ft 10s 7s 13
mph
1017.3mb 66f 64f
10:50pm 5ft 16s 8s 13 16 mph 1017mb 67f 65f
9:50pm 5ft 10s 8s 13 16 mph 1016.9mb 67f 65f
8:50pm 5ft 10s 8s 13 16 mph 1016.7mb 67f 65f
7:50pm 5ft 16s 8s 9 11 mph 1016.3mb 67f 65f
6:50pm 4.5ft 16s 7s 11 13 mph 1016.2mb 67f 65f
5:50pm 4.5ft 16s 7s 11 13 mph 1016.4mb 67f 65f
4:50pm 4.5ft 10s 7s 11 13 mph 1016.4mb 67f 65f
3:50pm 4.5ft 10s 7s 13 16 mph 1016.6mb 68f 65f
2:50pm 4ft 10s 7s 13 16 mph 1016.9mb 68f 65f
1:50pm 4.5ft 16s 7s 13 16 mph 1017mb 68f 65f
12:50pm 4.5ft 16s 7s 13
mph
1017.6mb 67f 64f
11:50am 4.5ft 16s 7s 13 16 mph 1017.7mb 67f 64f
10:50am 4.5ft 8s 7s 13 16 mph 1017.9mb 67f 63f
9:50am 4.5ft 9s 8s 11 16 mph 1017.4mb 67f 63f
8:50am 4.5ft 9s 8s 9 11 mph 1017.1mb 67f 64f
7:50am 4ft 9s 8s 7 9 mph 1016.4mb 67f 64f
6:50am 4.5ft 10s 8s 7 9 mph 1015.9mb 67f 64f
5:50am 4ft 8s 8s 4 7 mph 1015.4mb 67f 64f
4:50am 4ft 10s 8s 4 7 mph 1015mb 67f 64f
3:50am 4ft 14s 8s 7 11 mph 1014.7mb 67f 63f
2:50am 4ft 11s 8s 7 9 mph 1014.5mb 67f 62f
1:50am 4.5ft 8s 7s 7 9 mph 1014.5mb 68f 62f
12:50am 4ft 10s 7s 7 9 mph 1014.3mb 68f 63f
Wed 09/28 11:50pm 4.5ft 10s 8s 11 13 mph 1014mb 68f 64f
10:50pm 4.5ft 8s 8s 11 13 mph 1014.3mb 68f 64f
9:50pm 4.5ft 9s 8s 11 13 mph 1014.1mb 69f 64f
8:50pm 4.5ft 9s 8s 7 9 mph 1013.9mb 68f 64f
7:50pm 4.5ft 10s 8s 9 11 mph 1013.1mb 68f 65f
6:50pm 4ft 11s 8s 7 9 mph 1013mb 69f 65f
5:50pm 4ft 10s 8s 4 7 mph 1012.6mb 70f 69f
4:50pm 4.5ft 10s 8s 4
mph
1012.7mb 71f 69f
3:50pm 4.5ft 10s 8s  -  2 mph 1012.7mb 71f 69f
2:50pm 4.5ft 10s 8s 2 4 mph 1012.7mb 71f 66f
1:50pm 4.5ft 10s 8s 2 4 mph 1012.8mb 70f 64f
12:50pm 4.5ft 10s 8s 4 7 mph 1012.9mb 69f 64f
11:50am 4.5ft 10s 7s 4 7 mph 1013.1mb 68f 64f
10:50am 4.5ft 10s 8s 4 7 mph 1013.4mb 67f 64f
9:50am 4.5ft 14s 7s 7
mph
1013.1mb 67f 64f
8:50am 4ft 11s 8s 7 9 mph 1012.9mb 67f 64f
7:50am 4ft 10s 8s 7
mph
1012.5mb 67f 65f
6:50am 4ft 11s 8s 9
mph
1011.7mb 67f 66f
5:50am 3.5ft 11s 8s 9
mph
1011.3mb 67f 67f
4:50am 4ft 11s 8s 7
mph
1011mb 67f 67f
3:50am 3.5ft 10s 8s 4 7 mph 1010.7mb 67f 67f
2:50am 4ft 11s 8s 9 11 mph 1010.7mb 67f 68f
1:50am 3.5ft 13s 8s 9 11 mph 1011mb 68f 68f
12:50am 3.5ft 10s 8s 11 13 mph 1011.1mb 68f 68f
Tue 09/27 11:50pm 3.5ft 11s 9s 11 13 mph 1011.4mb 68f 68f
10:50pm 4ft 11s 9s 9 11 mph 1011.2mb 68f 68f
9:50pm 4ft 13s 9s 7
mph
1010.8mb 68f 68f
8:50pm 3.5ft 15s 9s 4 7 mph 1010.3mb 68f 68f
7:50pm 3.5ft 9s 8s 4 7 mph 1009.4mb 68f 69f
6:50pm 3.5ft 15s 9s 7
mph
1009.4mb 68f 69f